JTC650 MMMX-KLAX

Flight info

Callsign JTC650
Flight time 3h 20m
Altitude 43000
Route ATUR3B ATURO UT134 ZCL DCT AVISU UT60 AXASA UT41 ASUTA DCT AMMOR OLAAA2
Aircraft GLF6/M-SDE3FGHIRWY/LB1

Departure

Time 2026-04-23 21:00
Airport Mexico City Benito Juárez International Airport (MMMX)

Arrival

Time 2026-04-24 00:20
Airport Los Angeles International Airport (KLAX)
Time Latitude Longitude Altitude Speed Heading
2026-04-23 20:52 19.43037 -99.08975 7297 ft 0 kts 297°
2026-04-23 20:55 19.43034 -99.08969 7297 ft 4 kts 297°
2026-04-23 20:55 19.43023 -99.08945 7297 ft 2 kts 297°
2026-04-23 20:55 19.43015 -99.08922 7297 ft 4 kts 263°
2026-04-23 20:56 19.43026 -99.08901 7297 ft 4 kts 207°
2026-04-23 20:56 19.43051 -99.08890 7297 ft 4 kts 203°
2026-04-23 20:56 19.43058 -99.08887 7297 ft 0 kts 208°
2026-04-23 20:58 19.43057 -99.08887 7297 ft 2 kts 208°
2026-04-23 20:58 19.43017 -99.08913 7297 ft 12 kts 208°
2026-04-23 20:58 19.42931 -99.08978 7297 ft 16 kts 237°
2026-04-23 20:58 19.42858 -99.09049 7297 ft 13 kts 207°
2026-04-23 20:59 19.42784 -99.09084 7297 ft 11 kts 189°
2026-04-23 20:59 19.42771 -99.09027 7297 ft 17 kts 61°
2026-04-23 20:59 19.42931 -99.08743 7296 ft 75 kts 59°
2026-04-23 20:59 19.43300 -99.08086 7297 ft 132 kts 58°
2026-04-23 21:00 19.43861 -99.07084 7297 ft 183 kts 59°
2026-04-23 21:00 19.44578 -99.05843 7625 ft 202 kts 60°
2026-04-23 21:00 19.45279 -99.04540 8609 ft 206 kts 60°
2026-04-23 21:00 19.45941 -99.03170 9361 ft 223 kts 62°
2026-04-23 21:01 19.46744 -99.01576 9561 ft 251 kts 61°
2026-04-23 21:01 19.47725 -98.99990 10269 ft 260 kts 51°
2026-04-23 21:01 19.48766 -98.98467 11147 ft 255 kts 53°
2026-04-23 21:01 19.49738 -98.96785 11171 ft 281 kts 59°
2026-04-23 21:02 19.50387 -98.95515 11171 ft 298 kts 60°
2026-04-23 21:02 19.51814 -98.92859 11193 ft 328 kts 57°
2026-04-23 21:02 19.53054 -98.90725 11164 ft 353 kts 55°
2026-04-23 21:02 19.54696 -98.88715 11424 ft 363 kts 43°
2026-04-23 21:03 19.56441 -98.86779 12185 ft 365 kts 47°
2026-04-23 21:03 19.58115 -98.84734 12795 ft 369 kts 47°
2026-04-23 21:03 19.59859 -98.82703 13352 ft 376 kts 45°
2026-04-23 21:03 19.61665 -98.80682 14000 ft 379 kts 45°
2026-04-23 21:04 19.63451 -98.78615 14671 ft 381 kts 46°
2026-04-23 21:04 19.65242 -98.76521 15283 ft 385 kts 46°
2026-04-23 21:04 19.67056 -98.74423 15969 ft 387 kts 45°
2026-04-23 21:04 19.69056 -98.72521 16672 ft 387 kts 34°
2026-04-23 21:05 19.71367 -98.71062 17339 ft 386 kts 24°
2026-04-23 21:05 19.73883 -98.70080 18000 ft 387 kts 13°
2026-04-23 21:05 19.75630 -98.69717 18404 ft 386 kts
2026-04-23 21:05 19.78315 -98.69502 18939 ft 389 kts
2026-04-23 21:06 19.81031 -98.69317 19453 ft 392 kts
2026-04-23 21:06 19.84656 -98.69069 20100 ft 398 kts
2026-04-23 21:06 19.87421 -98.68891 20649 ft 399 kts
2026-04-23 21:06 19.90209 -98.68704 21117 ft 403 kts
2026-04-23 21:07 19.92104 -98.68617 21463 ft 404 kts 358°
2026-04-23 21:07 19.94906 -98.68925 21904 ft 407 kts 348°
2026-04-23 21:07 19.97639 -98.69705 22415 ft 407 kts 339°
2026-04-23 21:07 20.00224 -98.70942 22929 ft 408 kts 330°
2026-04-23 21:08 20.02568 -98.72582 23438 ft 410 kts 323°
2026-04-23 21:08 20.04874 -98.74373 23865 ft 412 kts 323°
2026-04-23 21:08 20.07211 -98.76159 24295 ft 414 kts 323°
2026-04-23 21:08 20.09544 -98.77964 24732 ft 416 kts 323°
2026-04-23 21:09 20.11884 -98.79786 25143 ft 418 kts 323°
2026-04-23 21:09 20.14243 -98.81610 25581 ft 420 kts 323°
2026-04-23 21:09 20.16615 -98.83436 26020 ft 422 kts 323°
2026-04-23 21:09 20.18984 -98.85302 26460 ft 424 kts 322°
2026-04-23 21:10 20.21354 -98.87194 26900 ft 427 kts 321°
2026-04-23 21:10 20.23549 -98.89328 27292 ft 429 kts 313°
2026-04-23 21:10 20.25450 -98.91783 27734 ft 431 kts 306°
2026-04-23 21:10 20.27054 -98.94490 28170 ft 433 kts 302°
2026-04-23 21:11 20.28626 -98.97232 28585 ft 436 kts 302°
2026-04-23 21:11 20.30220 -98.99988 29004 ft 438 kts 302°
2026-04-23 21:11 20.31809 -99.02772 29426 ft 441 kts 302°
2026-04-23 21:11 20.33395 -99.05574 29835 ft 443 kts 302°
2026-04-23 21:12 20.35006 -99.08385 30187 ft 446 kts 302°
2026-04-23 21:12 20.36632 -99.11206 30553 ft 447 kts 302°
2026-04-23 21:12 20.38247 -99.14042 30898 ft 449 kts 302°
2026-04-23 21:12 20.39874 -99.16897 31234 ft 451 kts 302°
2026-04-23 21:13 20.41513 -99.19762 31552 ft 454 kts 302°
2026-04-23 21:13 20.43206 -99.22649 31535 ft 464 kts 305°
2026-04-23 21:13 20.45224 -99.25357 31745 ft 467 kts 312°
2026-04-23 21:13 20.47534 -99.27780 32257 ft 465 kts 319°
2026-04-23 21:14 20.50000 -99.30000 32714 ft 463 kts 319°
2026-04-23 21:14 20.52444 -99.32234 33177 ft 462 kts 319°
2026-04-23 21:14 20.54890 -99.34447 33667 ft 460 kts 320°
2026-04-23 21:14 20.57337 -99.36636 34135 ft 458 kts 320°
2026-04-23 21:15 20.59763 -99.38819 34599 ft 455 kts 320°
2026-04-23 21:15 20.62168 -99.41002 34983 ft 453 kts 320°
2026-04-23 21:15 20.64569 -99.43176 35368 ft 452 kts 320°
2026-04-23 21:15 20.66968 -99.45338 35735 ft 451 kts 320°
2026-04-23 21:16 20.69331 -99.47469 36125 ft 449 kts 320°
2026-04-23 21:16 20.71706 -99.49622 36537 ft 447 kts 320°
2026-04-23 21:16 20.74075 -99.51771 36893 ft 446 kts 321°
2026-04-23 21:16 20.76439 -99.53908 37319 ft 444 kts 321°
2026-04-23 21:17 20.78790 -99.56031 37763 ft 441 kts 321°
2026-04-23 21:17 20.81126 -99.58150 38187 ft 440 kts 321°
2026-04-23 21:17 20.83454 -99.60265 38569 ft 439 kts 321°
2026-04-23 21:17 20.85781 -99.62374 38890 ft 438 kts 321°
2026-04-23 21:18 20.88106 -99.64480 39183 ft 438 kts 321°
2026-04-23 21:18 20.90420 -99.66582 39551 ft 436 kts 320°
2026-04-23 21:18 20.92734 -99.68684 39817 ft 437 kts 320°
2026-04-23 21:18 20.95052 -99.70788 40074 ft 437 kts 320°
2026-04-23 21:19 20.97370 -99.72894 40331 ft 437 kts 320°
2026-04-23 21:19 20.99689 -99.75004 40545 ft 438 kts 320°
2026-04-23 21:19 21.02008 -99.77124 40785 ft 438 kts 318°
2026-04-23 21:19 21.04132 -99.79467 40993 ft 440 kts 311°
2026-04-23 21:20 21.05977 -99.82081 41237 ft 440 kts 306°
2026-04-23 21:20 21.07718 -99.84778 41482 ft 440 kts 306°
2026-04-23 21:20 21.09481 -99.87461 41705 ft 441 kts 306°
2026-04-23 21:20 21.11237 -99.90148 41941 ft 441 kts 305°
2026-04-23 21:21 21.12984 -99.92850 42158 ft 441 kts 305°
2026-04-23 21:21 21.14735 -99.95550 42395 ft 441 kts 305°
2026-04-23 21:21 21.16486 -99.98240 42638 ft 440 kts 305°
2026-04-23 21:21 21.18236 -100.00934 42840 ft 441 kts 305°
2026-04-23 21:22 21.21776 -100.06393 42836 ft 451 kts 304°
2026-04-23 21:22 21.25389 -100.11966 42824 ft 460 kts 305°
2026-04-23 21:23 21.29060 -100.17635 42839 ft 468 kts 304°
2026-04-23 21:23 21.32756 -100.23352 42831 ft 465 kts 304°
2026-04-23 21:24 21.36449 -100.29064 42855 ft 467 kts 304°
2026-04-23 21:24 21.40148 -100.34796 42854 ft 467 kts 304°
2026-04-23 21:25 21.43848 -100.40533 42859 ft 468 kts 304°
2026-04-23 21:25 21.47547 -100.46278 42851 ft 467 kts 304°
2026-04-23 21:26 21.51230 -100.51999 42849 ft 464 kts 304°
2026-04-23 21:26 21.54899 -100.57708 42859 ft 465 kts 304°
2026-04-23 21:27 21.58577 -100.63434 42866 ft 466 kts 304°
2026-04-23 21:27 21.62253 -100.69164 42856 ft 465 kts 304°
2026-04-23 21:28 21.65927 -100.74899 42867 ft 466 kts 304°
2026-04-23 21:28 21.69606 -100.80644 42869 ft 466 kts 304°
2026-04-23 21:29 21.73278 -100.86389 42870 ft 466 kts 304°
2026-04-23 21:29 21.76958 -100.92148 42891 ft 467 kts 304°
2026-04-23 21:30 21.80632 -100.97906 42871 ft 465 kts 304°
2026-04-23 21:30 21.84285 -101.03636 42880 ft 465 kts 304°
2026-04-23 21:31 21.87951 -101.09392 42884 ft 466 kts 304°
2026-04-23 21:31 21.91617 -101.15156 42505 ft 470 kts 304°
2026-04-23 21:32 21.93458 -101.18053 42132 ft 466 kts 304°
2026-04-23 21:32 21.95284 -101.20927 41752 ft 465 kts 304°
2026-04-23 21:32 21.97115 -101.23811 41399 ft 467 kts 305°
2026-04-23 21:32 21.98947 -101.26697 41055 ft 467 kts 305°
2026-04-23 21:33 22.00773 -101.29578 40866 ft 462 kts 305°
2026-04-23 21:33 22.02586 -101.32424 40887 ft 460 kts 305°
2026-04-23 21:33 22.06210 -101.38099 40926 ft 458 kts 305°
2026-04-23 21:34 22.09786 -101.43724 40910 ft 453 kts 305°
2026-04-23 21:34 22.13319 -101.49279 40914 ft 452 kts 305°
2026-04-23 21:35 22.16879 -101.54884 40921 ft 453 kts 305°
2026-04-23 21:35 22.20436 -101.60491 40921 ft 452 kts 305°
2026-04-23 21:36 22.25769 -101.68908 40925 ft 453 kts 304°
2026-04-23 21:37 22.29328 -101.74534 40934 ft 454 kts 304°
2026-04-23 21:37 22.32885 -101.80160 40939 ft 453 kts 304°
2026-04-23 21:38 22.36436 -101.85787 40948 ft 453 kts 304°
2026-04-23 21:38 22.40018 -101.91463 40989 ft 464 kts 304°
2026-04-23 21:38 22.41833 -101.94343 41117 ft 463 kts 304°
2026-04-23 21:39 22.43646 -101.97222 41122 ft 463 kts 304°
2026-04-23 21:39 22.47266 -102.02973 41127 ft 463 kts 304°
2026-04-23 21:40 22.50889 -102.08736 41120 ft 464 kts 304°
2026-04-23 21:40 22.54517 -102.14512 41134 ft 464 kts 304°
2026-04-23 21:41 22.58105 -102.20232 41332 ft 450 kts 304°
2026-04-23 21:41 22.59819 -102.22968 41483 ft 433 kts 304°
2026-04-23 21:41 22.61493 -102.25637 41659 ft 425 kts 303°
2026-04-23 21:41 22.63148 -102.28282 41930 ft 425 kts 303°
2026-04-23 21:42 22.64810 -102.30937 42220 ft 426 kts 303°
2026-04-23 21:42 22.66465 -102.33581 42511 ft 422 kts 303°
2026-04-23 21:42 22.68107 -102.36209 42790 ft 422 kts 303°
2026-04-23 21:43 22.71434 -102.41534 42912 ft 428 kts 303°
2026-04-23 21:43 22.74762 -102.46864 42983 ft 427 kts 303°
2026-04-23 21:44 22.78094 -102.52210 43064 ft 429 kts 303°
2026-04-23 21:44 22.81433 -102.57570 43146 ft 429 kts 303°
2026-04-23 21:45 22.84768 -102.62932 43200 ft 429 kts 303°
2026-04-23 21:45 22.88104 -102.68296 43201 ft 429 kts 303°
2026-04-23 21:46 22.91357 -102.73729 43216 ft 429 kts 302°
2026-04-23 21:46 22.94594 -102.79156 43165 ft 427 kts 301°
2026-04-23 21:47 22.97850 -102.84645 43104 ft 440 kts 301°
2026-04-23 21:47 23.01228 -102.90335 43018 ft 456 kts 301°
2026-04-23 21:48 23.04640 -102.96090 42932 ft 455 kts 301°
2026-04-23 21:48 23.08057 -103.01863 42839 ft 455 kts 301°
2026-04-23 21:49 23.11485 -103.07660 42850 ft 456 kts 301°
2026-04-23 21:49 23.14909 -103.13455 42839 ft 456 kts 301°
2026-04-23 21:50 23.18337 -103.19266 42840 ft 458 kts 301°
2026-04-23 21:50 23.21774 -103.25095 42858 ft 456 kts 301°
2026-04-23 21:51 23.25176 -103.30876 42847 ft 453 kts 301°
2026-04-23 21:51 23.28581 -103.36667 42863 ft 456 kts 301°
2026-04-23 21:52 23.31995 -103.42478 42860 ft 455 kts 301°
2026-04-23 21:52 23.35397 -103.48276 42855 ft 455 kts 301°
2026-04-23 21:53 23.38801 -103.54085 42873 ft 455 kts 301°
2026-04-23 21:53 23.42198 -103.59888 42863 ft 454 kts 301°
2026-04-23 21:54 23.45593 -103.65695 42873 ft 455 kts 301°
2026-04-23 21:54 23.48991 -103.71510 42873 ft 453 kts 301°
2026-04-23 21:55 23.52359 -103.77286 42853 ft 451 kts 301°
2026-04-23 21:55 23.55158 -103.82091 42854 ft 453 kts 301°
2026-04-23 21:56 23.58533 -103.87886 42859 ft 452 kts 301°
2026-04-23 21:56 23.61929 -103.93670 42851 ft 454 kts 303°
2026-04-23 21:57 23.66100 -103.98863 42842 ft 456 kts 311°
2026-04-23 21:57 23.70503 -104.03857 42842 ft 457 kts 311°
2026-04-23 21:58 23.74929 -104.08852 42807 ft 457 kts 311°
2026-04-23 21:58 23.79330 -104.13841 42809 ft 456 kts 311°
2026-04-23 21:59 23.83740 -104.18839 42813 ft 457 kts 311°
2026-04-23 21:59 23.88148 -104.23841 42797 ft 457 kts 311°
2026-04-23 22:00 23.94782 -104.31376 42922 ft 459 kts 311°
2026-04-23 22:00 23.99195 -104.36399 42982 ft 458 kts 311°
2026-04-23 22:01 24.03586 -104.41399 43058 ft 459 kts 311°
2026-04-23 22:01 24.08006 -104.46440 43111 ft 459 kts 311°
2026-04-23 22:02 24.12420 -104.51477 43110 ft 459 kts 311°
2026-04-23 22:02 24.16838 -104.56526 43112 ft 459 kts 311°
2026-04-23 22:03 24.21256 -104.61579 43082 ft 459 kts 311°
2026-04-23 22:03 24.25668 -104.66629 43025 ft 459 kts 311°
2026-04-23 22:04 24.30083 -104.71689 42962 ft 459 kts 311°
2026-04-23 22:04 24.34484 -104.76740 42901 ft 456 kts 311°
2026-04-23 22:05 24.38870 -104.81779 42848 ft 458 kts 311°
2026-04-23 22:05 24.43271 -104.86838 42840 ft 457 kts 311°
2026-04-23 22:06 24.47656 -104.91889 42844 ft 457 kts 311°
2026-04-23 22:06 24.52048 -104.96950 42860 ft 459 kts 310°
2026-04-23 22:07 24.56428 -105.02002 42866 ft 459 kts 310°
2026-04-23 22:07 24.60822 -105.07077 42863 ft 457 kts 310°
2026-04-23 22:08 24.65195 -105.12133 42878 ft 456 kts 310°
2026-04-23 22:08 24.69560 -105.17183 42872 ft 456 kts 310°
2026-04-23 22:09 24.73924 -105.22243 42883 ft 456 kts 310°
2026-04-23 22:09 24.78285 -105.27300 42882 ft 456 kts 310°
2026-04-23 22:10 24.82647 -105.32366 42880 ft 456 kts 310°
2026-04-23 22:10 24.87010 -105.37438 42904 ft 455 kts 310°
2026-04-23 22:11 24.91348 -105.42485 42900 ft 453 kts 310°
2026-04-23 22:11 24.95682 -105.47536 42880 ft 454 kts 310°
2026-04-23 22:12 25.00021 -105.52595 42905 ft 454 kts 310°
2026-04-23 22:12 25.04348 -105.57649 42904 ft 452 kts 310°
2026-04-23 22:13 25.08645 -105.62670 42894 ft 454 kts 310°
2026-04-23 22:13 25.12985 -105.67749 42914 ft 454 kts 309°
2026-04-23 22:14 25.17305 -105.72809 42896 ft 452 kts 309°
2026-04-23 22:14 25.21611 -105.77861 42897 ft 452 kts 309°
2026-04-23 22:15 25.25923 -105.82923 42938 ft 451 kts 309°
2026-04-23 22:15 25.30223 -105.87978 42922 ft 452 kts 309°
2026-04-23 22:16 25.34529 -105.93042 42958 ft 451 kts 309°
2026-04-23 22:16 25.38829 -105.98111 42950 ft 453 kts 309°
2026-04-23 22:17 25.43128 -106.03179 42946 ft 450 kts 309°
2026-04-23 22:17 25.47395 -106.08218 42967 ft 449 kts 309°
2026-04-23 22:18 25.51677 -106.13279 42964 ft 451 kts 309°
2026-04-23 22:18 25.55954 -106.18337 42967 ft 449 kts 308°
2026-04-23 22:19 25.60224 -106.23399 42975 ft 451 kts 309°
2026-04-23 22:19 25.64511 -106.28482 42998 ft 451 kts 308°
2026-04-23 22:20 25.68783 -106.33553 42972 ft 449 kts 308°
2026-04-23 22:20 25.73040 -106.38613 42980 ft 450 kts 308°
2026-04-23 22:21 25.77290 -106.43673 42991 ft 451 kts 308°
2026-04-23 22:21 25.81556 -106.48751 42989 ft 449 kts 308°
2026-04-23 22:22 25.85821 -106.53840 43008 ft 451 kts 308°
2026-04-23 22:22 25.90086 -106.58931 43030 ft 449 kts 308°
2026-04-23 22:23 25.94342 -106.64020 43013 ft 449 kts 308°
2026-04-23 22:23 25.98590 -106.69101 43009 ft 449 kts 308°
2026-04-23 22:24 26.02840 -106.74197 43005 ft 450 kts 308°
2026-04-23 22:24 26.07095 -106.79298 42999 ft 448 kts 308°
2026-04-23 22:25 26.11326 -106.84380 42995 ft 449 kts 308°
2026-04-23 22:25 26.15574 -106.89486 43000 ft 450 kts 308°
2026-04-23 22:26 26.19815 -106.94590 42994 ft 448 kts 307°
2026-04-23 22:26 26.24036 -106.99678 42985 ft 447 kts 307°
2026-04-23 22:27 26.28258 -107.04771 42988 ft 448 kts 307°
2026-04-23 22:27 26.32484 -107.09873 42978 ft 448 kts 307°
2026-04-23 22:28 26.36705 -107.14978 42983 ft 447 kts 307°
2026-04-23 22:28 26.40873 -107.20025 42969 ft 446 kts 307°
2026-04-23 22:29 26.45092 -107.25138 42987 ft 449 kts 307°
2026-04-23 22:29 26.49313 -107.30258 42980 ft 447 kts 307°
2026-04-23 22:30 26.53520 -107.35366 42967 ft 447 kts 307°
2026-04-23 22:30 26.57726 -107.40491 42949 ft 446 kts 307°
2026-04-23 22:31 26.61907 -107.45569 42999 ft 444 kts 307°
2026-04-23 22:31 26.66134 -107.50735 42966 ft 452 kts 307°
2026-04-23 22:32 26.70282 -107.55789 42965 ft 449 kts 307°
2026-04-23 22:32 26.74494 -107.60938 42959 ft 448 kts 307°
2026-04-23 22:33 26.78702 -107.66086 42951 ft 449 kts 307°
2026-04-23 22:33 26.82894 -107.71221 42953 ft 450 kts 307°
2026-04-23 22:34 26.87095 -107.76370 42944 ft 447 kts 307°
2026-04-23 22:34 26.91309 -107.81549 42967 ft 452 kts 307°
2026-04-23 22:35 26.95551 -107.86759 42935 ft 450 kts 306°
2026-04-23 22:35 26.99769 -107.91951 42944 ft 453 kts 306°
2026-04-23 22:36 27.04012 -107.97178 42947 ft 453 kts 307°
2026-04-23 22:36 27.08241 -108.02396 42937 ft 452 kts 306°
2026-04-23 22:37 27.12461 -108.07606 42938 ft 450 kts 306°
2026-04-23 22:37 27.16682 -108.12829 42956 ft 453 kts 306°
2026-04-23 22:38 27.20908 -108.18056 42943 ft 451 kts 306°
2026-04-23 22:38 27.25122 -108.23287 42952 ft 452 kts 306°
2026-04-23 22:39 27.29343 -108.28523 42949 ft 452 kts 306°
2026-04-23 22:39 27.33556 -108.33758 42970 ft 451 kts 306°
2026-04-23 22:40 27.37764 -108.38996 42967 ft 452 kts 306°
2026-04-23 22:41 27.44087 -108.46875 42952 ft 452 kts 306°
2026-04-23 22:41 27.48293 -108.52122 42953 ft 451 kts 306°
2026-04-23 22:42 27.52490 -108.57367 42942 ft 451 kts 306°
2026-04-23 22:42 27.56675 -108.62605 42946 ft 453 kts 306°
2026-04-23 22:43 27.60890 -108.67881 42937 ft 454 kts 306°
2026-04-23 22:43 27.65106 -108.73171 42930 ft 452 kts 306°
2026-04-23 22:44 27.69304 -108.78439 42933 ft 449 kts 305°
2026-04-23 22:44 27.73478 -108.83694 42931 ft 451 kts 305°
2026-04-23 22:45 27.77666 -108.88961 42926 ft 451 kts 305°
2026-04-23 22:45 27.81849 -108.94237 42929 ft 451 kts 305°
2026-04-23 22:46 27.86032 -108.99513 42917 ft 450 kts 305°
2026-04-23 22:46 27.90205 -109.04790 42946 ft 451 kts 304°
2026-04-23 22:47 27.94381 -109.10069 42930 ft 449 kts 304°
2026-04-23 22:47 27.98538 -109.15340 42913 ft 450 kts 304°
2026-04-23 22:48 28.02702 -109.20614 42931 ft 448 kts 304°
2026-04-23 22:48 28.06851 -109.25890 42919 ft 449 kts 304°
2026-04-23 22:49 28.11014 -109.31180 42922 ft 449 kts 304°
2026-04-23 22:49 28.15164 -109.36466 42912 ft 449 kts 304°
2026-04-23 22:50 28.19313 -109.41752 42890 ft 448 kts 304°
2026-04-23 22:50 28.22748 -109.46137 42890 ft 448 kts 304°
2026-04-23 22:51 28.26889 -109.51433 42892 ft 451 kts 303°
2026-04-23 22:51 28.31072 -109.56778 42884 ft 451 kts 304°
2026-04-23 22:52 28.35215 -109.62088 42873 ft 448 kts 304°
2026-04-23 22:52 28.39344 -109.67385 42877 ft 448 kts 303°
2026-04-23 22:53 28.43466 -109.72675 42877 ft 446 kts 303°
2026-04-23 22:53 28.47571 -109.77959 42871 ft 446 kts 303°
2026-04-23 22:54 28.51681 -109.83250 42860 ft 447 kts 303°
2026-04-23 22:54 28.55807 -109.88571 42867 ft 449 kts 303°
2026-04-23 22:55 28.59931 -109.93889 42864 ft 447 kts 303°
2026-04-23 22:55 28.64041 -109.99205 42866 ft 446 kts 303°
2026-04-23 22:56 28.68132 -110.04497 42860 ft 445 kts 303°
2026-04-23 22:56 28.72225 -110.09805 42863 ft 446 kts 303°
2026-04-23 22:57 28.76318 -110.15112 42846 ft 445 kts 303°
2026-04-23 22:57 28.80416 -110.20441 42866 ft 449 kts 303°
2026-04-23 22:58 28.84525 -110.25784 42853 ft 448 kts 302°
2026-04-23 22:58 28.88586 -110.31074 42854 ft 445 kts 302°
2026-04-23 22:59 28.92658 -110.36386 42843 ft 445 kts 302°
2026-04-23 22:59 28.96740 -110.41718 42847 ft 446 kts 302°
2026-04-23 23:00 29.00814 -110.47042 42840 ft 445 kts 302°
2026-04-23 23:00 29.04884 -110.52375 42839 ft 446 kts 302°
2026-04-23 23:01 29.08959 -110.57714 42844 ft 445 kts 302°
2026-04-23 23:01 29.13026 -110.63055 42836 ft 445 kts 302°
2026-04-23 23:02 29.17095 -110.68404 42846 ft 446 kts 302°
2026-04-23 23:02 29.21164 -110.73760 42855 ft 445 kts 302°
2026-04-23 23:03 29.25229 -110.79117 42862 ft 446 kts 302°
2026-04-23 23:03 29.29294 -110.84484 42863 ft 447 kts 302°
2026-04-23 23:04 29.33354 -110.89845 42861 ft 444 kts 302°
2026-04-23 23:04 29.37390 -110.95189 42851 ft 444 kts 302°
2026-04-23 23:05 29.41439 -111.00553 42848 ft 445 kts 302°
2026-04-23 23:05 29.45481 -111.05915 42835 ft 443 kts 302°
2026-04-23 23:06 29.49510 -111.11270 42838 ft 444 kts 302°
2026-04-23 23:06 29.53521 -111.16604 42844 ft 444 kts 301°
2026-04-23 23:07 29.57549 -111.21970 42847 ft 443 kts 301°
2026-04-23 23:07 29.61578 -111.27346 42845 ft 444 kts 301°
2026-04-23 23:08 29.65606 -111.32722 42848 ft 443 kts 301°
2026-04-23 23:08 29.69622 -111.38098 42847 ft 444 kts 301°
2026-04-23 23:09 29.73647 -111.43485 42857 ft 444 kts 301°
2026-04-23 23:09 29.77660 -111.48863 42862 ft 442 kts 301°
2026-04-23 23:10 29.81670 -111.54254 42873 ft 444 kts 301°
2026-04-23 23:10 29.85687 -111.59650 42870 ft 443 kts 301°
2026-04-23 23:11 29.89688 -111.65041 42866 ft 443 kts 301°
2026-04-23 23:11 29.93696 -111.70443 42870 ft 443 kts 301°
2026-04-23 23:12 29.97705 -111.75856 42868 ft 443 kts 301°
2026-04-23 23:12 30.01698 -111.81254 42861 ft 442 kts 301°
2026-04-23 23:13 30.05695 -111.86669 42866 ft 444 kts 301°
2026-04-23 23:13 30.09695 -111.92086 42867 ft 443 kts 301°
2026-04-23 23:14 30.13683 -111.97503 42867 ft 443 kts 301°
2026-04-23 23:14 30.17682 -112.02938 42863 ft 444 kts 300°
2026-04-23 23:15 30.21668 -112.08361 42876 ft 441 kts 300°
2026-04-23 23:15 30.25639 -112.13779 42864 ft 442 kts 300°
2026-04-23 23:16 30.29625 -112.19218 42880 ft 444 kts 300°
2026-04-23 23:16 30.33606 -112.24657 42881 ft 442 kts 300°
2026-04-23 23:17 30.37551 -112.30059 42918 ft 443 kts 300°
2026-04-23 23:17 30.41533 -112.35513 42888 ft 442 kts 300°
2026-04-23 23:18 30.45496 -112.40955 42888 ft 442 kts 300°
2026-04-23 23:18 30.49468 -112.46414 42887 ft 443 kts 300°
2026-04-23 23:19 30.53433 -112.51870 42888 ft 442 kts 300°
2026-04-23 23:19 30.57396 -112.57334 42891 ft 443 kts 300°
2026-04-23 23:20 30.61369 -112.62815 42899 ft 443 kts 300°
2026-04-23 23:20 30.65323 -112.68280 42902 ft 441 kts 300°
2026-04-23 23:21 30.69274 -112.73750 42901 ft 443 kts 300°
2026-04-23 23:21 30.73230 -112.79229 42891 ft 442 kts 300°
2026-04-23 23:22 30.77177 -112.84708 42898 ft 443 kts 300°
2026-04-23 23:22 30.81133 -112.90207 42904 ft 444 kts 300°
2026-04-23 23:23 30.85085 -112.95706 42904 ft 442 kts 300°
2026-04-23 23:23 30.89032 -113.01210 42906 ft 443 kts 300°
2026-04-23 23:24 30.92985 -113.06723 42909 ft 443 kts 300°
2026-04-23 23:24 30.96924 -113.12230 42905 ft 442 kts 300°
2026-04-23 23:25 31.00848 -113.17726 42913 ft 446 kts 300°
2026-04-23 23:25 31.04819 -113.23286 42913 ft 445 kts 300°
2026-04-23 23:26 31.08769 -113.28835 42916 ft 445 kts 300°
2026-04-23 23:26 31.12730 -113.34401 42914 ft 446 kts 300°
2026-04-23 23:27 31.16682 -113.39964 42910 ft 445 kts 300°
2026-04-23 23:27 31.20635 -113.45539 42910 ft 445 kts 300°
2026-04-23 23:28 31.24588 -113.51119 42904 ft 446 kts 300°
2026-04-23 23:28 31.28539 -113.56703 42911 ft 445 kts 300°
2026-04-23 23:29 31.32484 -113.62291 42906 ft 446 kts 300°
2026-04-23 23:29 31.36431 -113.67886 42908 ft 446 kts 300°
2026-04-23 23:30 31.40375 -113.73487 42914 ft 446 kts 300°
2026-04-23 23:30 31.44329 -113.79112 42913 ft 449 kts 301°
2026-04-23 23:31 31.48271 -113.84723 42920 ft 449 kts 301°
2026-04-23 23:31 31.52226 -113.90366 42912 ft 448 kts 301°
2026-04-23 23:32 31.56184 -113.96021 42912 ft 449 kts 301°
2026-04-23 23:32 31.60141 -114.01679 42940 ft 448 kts 301°
2026-04-23 23:33 31.64128 -114.07336 42898 ft 450 kts 302°
2026-04-23 23:33 31.68160 -114.12959 42901 ft 450 kts 301°
2026-04-23 23:34 31.72169 -114.18623 42904 ft 451 kts 301°
2026-04-23 23:34 31.76185 -114.24271 42901 ft 450 kts 301°
2026-04-23 23:35 31.80167 -114.29897 42914 ft 452 kts 301°
2026-04-23 23:35 31.84189 -114.35579 42903 ft 452 kts 302°
2026-04-23 23:36 31.88204 -114.41264 42907 ft 452 kts 301°
2026-04-23 23:36 31.92223 -114.46965 42909 ft 453 kts 301°
2026-04-23 23:37 31.96245 -114.52671 42905 ft 452 kts 301°
2026-04-23 23:37 32.00256 -114.58378 42899 ft 454 kts 302°
2026-04-23 23:38 32.03611 -114.63155 42908 ft 455 kts 302°
2026-04-23 23:38 32.07643 -114.68902 42911 ft 454 kts 302°
2026-04-23 23:39 32.11662 -114.74644 42904 ft 454 kts 302°
2026-04-23 23:39 32.15687 -114.80400 42909 ft 455 kts 302°
2026-04-23 23:40 32.19706 -114.86158 42904 ft 455 kts 302°
2026-04-23 23:40 32.23731 -114.91932 42910 ft 455 kts 302°
2026-04-23 23:41 32.27750 -114.97706 42908 ft 455 kts 302°
2026-04-23 23:41 32.31764 -115.03486 42907 ft 455 kts 302°
2026-04-23 23:42 32.35445 -115.09490 42904 ft 448 kts 295°
2026-04-23 23:42 32.38800 -115.15722 42914 ft 449 kts 296°
2026-04-23 23:43 32.42146 -115.21962 42912 ft 449 kts 296°
2026-04-23 23:43 32.45488 -115.28200 42912 ft 449 kts 296°
2026-04-23 23:44 32.48831 -115.34448 42906 ft 449 kts 296°
2026-04-23 23:44 32.52170 -115.40703 42907 ft 449 kts 296°
2026-04-23 23:45 32.55509 -115.46968 42891 ft 450 kts 296°
2026-04-23 23:45 32.58839 -115.53227 42721 ft 456 kts 296°
2026-04-23 23:45 32.60539 -115.56430 42090 ft 457 kts 296°
2026-04-23 23:46 32.62227 -115.59594 41478 ft 450 kts 296°
2026-04-23 23:46 32.63881 -115.62709 40904 ft 443 kts 296°
2026-04-23 23:46 32.65506 -115.65780 40327 ft 436 kts 296°
2026-04-23 23:46 32.67108 -115.68810 39759 ft 431 kts 296°
2026-04-23 23:47 32.68689 -115.71805 39187 ft 426 kts 296°
2026-04-23 23:47 32.70256 -115.74774 38625 ft 423 kts 296°
2026-04-23 23:47 32.71813 -115.77726 38067 ft 421 kts 296°
2026-04-23 23:47 32.73374 -115.80695 37480 ft 429 kts 296°
2026-04-23 23:48 32.74968 -115.83727 36913 ft 434 kts 297°
2026-04-23 23:48 32.76575 -115.86768 36341 ft 435 kts 297°
2026-04-23 23:48 32.78183 -115.89826 35770 ft 438 kts 297°
2026-04-23 23:48 32.79803 -115.92916 35197 ft 443 kts 297°
2026-04-23 23:49 32.82996 -115.99225 34023 ft 449 kts 297°
2026-04-23 23:49 32.84601 -116.02425 33401 ft 451 kts 297°
2026-04-23 23:49 32.86213 -116.05630 32814 ft 453 kts 297°
2026-04-23 23:50 32.87836 -116.08872 32219 ft 458 kts 297°
2026-04-23 23:50 32.89465 -116.12134 31607 ft 460 kts 297°
2026-04-23 23:50 32.91106 -116.15416 31006 ft 463 kts 297°
2026-04-23 23:50 32.92760 -116.18728 30393 ft 467 kts 298°
2026-04-23 23:51 32.94398 -116.22010 29750 ft 466 kts 298°
2026-04-23 23:51 32.96029 -116.25279 29122 ft 453 kts 298°
2026-04-23 23:51 32.97618 -116.28465 28553 ft 441 kts 297°
2026-04-23 23:51 32.99162 -116.31570 27962 ft 431 kts 297°
2026-04-23 23:52 33.00670 -116.34607 27406 ft 422 kts 297°
2026-04-23 23:52 33.02150 -116.37586 26849 ft 415 kts 297°
2026-04-23 23:52 33.03606 -116.40522 26326 ft 409 kts 297°
2026-04-23 23:52 33.04983 -116.43459 25808 ft 402 kts 292°
2026-04-23 23:53 33.06077 -116.46458 25600 ft 391 kts 291°
2026-04-23 23:53 33.07208 -116.49433 25354 ft 397 kts 292°
2026-04-23 23:53 33.08351 -116.52410 25106 ft 393 kts 291°
2026-04-23 23:53 33.09454 -116.55377 24841 ft 389 kts 291°
2026-04-23 23:54 33.10537 -116.58314 24579 ft 385 kts 291°
2026-04-23 23:54 33.11633 -116.61239 24333 ft 389 kts 291°
2026-04-23 23:54 33.12714 -116.64189 24091 ft 385 kts 289°
2026-04-23 23:54 33.13496 -116.67219 23834 ft 382 kts 282°
2026-04-23 23:55 33.13986 -116.70327 23588 ft 381 kts 278°
2026-04-23 23:55 33.14438 -116.73429 23302 ft 379 kts 279°
2026-04-23 23:55 33.14908 -116.76514 23024 ft 377 kts 279°
2026-04-23 23:55 33.15360 -116.79596 22753 ft 377 kts 279°
2026-04-23 23:56 33.15803 -116.82671 22446 ft 376 kts 279°
2026-04-23 23:56 33.16252 -116.85743 22049 ft 377 kts 279°
2026-04-23 23:56 33.16702 -116.88811 21536 ft 374 kts 279°
2026-04-23 23:56 33.17146 -116.91855 21044 ft 372 kts 279°
2026-04-23 23:57 33.17587 -116.94890 20545 ft 370 kts 279°
2026-04-23 23:57 33.18024 -116.97912 20058 ft 369 kts 279°
2026-04-23 23:57 33.18461 -117.00921 19594 ft 367 kts 279°
2026-04-23 23:57 33.18895 -117.03910 19121 ft 364 kts 279°
2026-04-23 23:58 33.19317 -117.06841 18664 ft 362 kts 279°
2026-04-23 23:58 33.19748 -117.09837 18189 ft 360 kts 279°
2026-04-23 23:58 33.20171 -117.12771 17677 ft 357 kts 279°
2026-04-23 23:58 33.20590 -117.15686 17132 ft 356 kts 279°
2026-04-23 23:59 33.21000 -117.18561 16528 ft 356 kts 279°
2026-04-23 23:59 33.21421 -117.21479 15918 ft 357 kts 279°
2026-04-23 23:59 33.21836 -117.24396 15336 ft 355 kts 279°
2026-04-23 23:59 33.22251 -117.27298 14762 ft 353 kts 279°
2026-04-24 00:00 33.22660 -117.30182 14196 ft 352 kts 279°
2026-04-24 00:00 33.23069 -117.33036 13886 ft 345 kts 279°
2026-04-24 00:00 33.23505 -117.35835 13589 ft 340 kts 280°
2026-04-24 00:00 33.23948 -117.38549 13319 ft 326 kts 280°
2026-04-24 00:01 33.24355 -117.41153 13067 ft 312 kts 280°
2026-04-24 00:01 33.24739 -117.43654 12827 ft 300 kts 280°
2026-04-24 00:01 33.25111 -117.46055 12594 ft 288 kts 280°
2026-04-24 00:01 33.25472 -117.48362 12381 ft 278 kts 280°
2026-04-24 00:02 33.25820 -117.50618 12180 ft 275 kts 280°
2026-04-24 00:02 33.26271 -117.52832 11982 ft 274 kts 289°
2026-04-24 00:02 33.27093 -117.54858 11993 ft 270 kts 299°
2026-04-24 00:02 33.28116 -117.56724 11991 ft 267 kts 301°
2026-04-24 00:03 33.29112 -117.58601 11991 ft 268 kts 300°
2026-04-24 00:03 33.30117 -117.60481 11994 ft 268 kts 301°
2026-04-24 00:03 33.31129 -117.62350 11994 ft 268 kts 301°
2026-04-24 00:03 33.32137 -117.64220 11994 ft 268 kts 301°
2026-04-24 00:04 33.33144 -117.66091 11995 ft 268 kts 300°
2026-04-24 00:04 33.34150 -117.67966 11997 ft 268 kts 300°
2026-04-24 00:04 33.35158 -117.69837 11998 ft 268 kts 301°
2026-04-24 00:04 33.36163 -117.71712 11999 ft 268 kts 300°
2026-04-24 00:05 33.37170 -117.73586 11995 ft 268 kts 300°
2026-04-24 00:05 33.38182 -117.75472 11876 ft 271 kts 300°
2026-04-24 00:05 33.39207 -117.77383 11688 ft 274 kts 301°
2026-04-24 00:05 33.40239 -117.79309 11472 ft 275 kts 301°
2026-04-24 00:06 33.41273 -117.81239 11243 ft 276 kts 301°
2026-04-24 00:06 33.42309 -117.83171 11016 ft 275 kts 301°
2026-04-24 00:06 33.43325 -117.85072 10799 ft 274 kts 301°
2026-04-24 00:06 33.44352 -117.86990 10569 ft 273 kts 301°
2026-04-24 00:07 33.45371 -117.88898 10349 ft 272 kts 301°
2026-04-24 00:07 33.46397 -117.90798 10118 ft 272 kts 302°
2026-04-24 00:07 33.47669 -117.92481 9876 ft 275 kts 316°
2026-04-24 00:07 33.49232 -117.93803 9642 ft 277 kts 328°
2026-04-24 00:08 33.51011 -117.94701 9414 ft 278 kts 338°
2026-04-24 00:08 33.52831 -117.95482 9189 ft 278 kts 336°
2026-04-24 00:08 33.54642 -117.96287 8960 ft 277 kts 337°
2026-04-24 00:08 33.56451 -117.97070 8722 ft 276 kts 337°
2026-04-24 00:09 33.58250 -117.97849 8496 ft 275 kts 338°
2026-04-24 00:09 33.60045 -117.98629 8269 ft 274 kts 337°
2026-04-24 00:09 33.61834 -117.99409 8042 ft 273 kts 338°
2026-04-24 00:09 33.63637 -118.00111 7817 ft 273 kts 341°
2026-04-24 00:10 33.65447 -118.00755 7595 ft 270 kts 341°
2026-04-24 00:10 33.67245 -118.01420 7370 ft 271 kts 342°
2026-04-24 00:10 33.69050 -118.02081 7147 ft 270 kts 342°
2026-04-24 00:10 33.70840 -118.02735 6991 ft 266 kts 342°
2026-04-24 00:11 33.72578 -118.03369 6979 ft 255 kts 342°
2026-04-24 00:11 33.74222 -118.03972 6975 ft 238 kts 342°
2026-04-24 00:11 33.75791 -118.04544 6939 ft 235 kts 342°
2026-04-24 00:11 33.77355 -118.05119 6941 ft 235 kts 342°
2026-04-24 00:12 33.78920 -118.05737 6789 ft 239 kts 338°
2026-04-24 00:12 33.80448 -118.06495 6541 ft 236 kts 338°
2026-04-24 00:12 33.81965 -118.07224 6270 ft 233 kts 339°
2026-04-24 00:12 33.83465 -118.07937 5982 ft 231 kts 339°
2026-04-24 00:13 33.84948 -118.08649 5701 ft 228 kts 339°
2026-04-24 00:13 33.86411 -118.09351 5437 ft 225 kts 339°
2026-04-24 00:13 33.87857 -118.10044 5176 ft 223 kts 339°
2026-04-24 00:13 33.89305 -118.10663 4950 ft 218 kts 349°
2026-04-24 00:14 33.90754 -118.10749 4915 ft 202 kts 359°
2026-04-24 00:14 33.92158 -118.10880 4570 ft 204 kts 350°
2026-04-24 00:14 33.93476 -118.11520 4176 ft 206 kts 327°
2026-04-24 00:14 33.94613 -118.12573 3822 ft 207 kts 320°
2026-04-24 00:15 33.95520 -118.13891 3533 ft 202 kts 295°
2026-04-24 00:15 33.95926 -118.15407 3550 ft 184 kts 278°
2026-04-24 00:15 33.95916 -118.16930 3496 ft 184 kts 263°
2026-04-24 00:15 33.95773 -118.18444 3328 ft 181 kts 264°
2026-04-24 00:16 33.95635 -118.19936 3078 ft 177 kts 262°
2026-04-24 00:16 33.95468 -118.21390 2841 ft 173 kts 262°
2026-04-24 00:16 33.95335 -118.22818 2619 ft 169 kts 262°
2026-04-24 00:16 33.95178 -118.24200 2407 ft 164 kts 261°
2026-04-24 00:17 33.95061 -118.25478 2201 ft 141 kts 262°
2026-04-24 00:17 33.94940 -118.26559 1995 ft 121 kts 261°
2026-04-24 00:17 33.94839 -118.27550 1804 ft 118 kts 261°
2026-04-24 00:17 33.94730 -118.28554 1617 ft 124 kts 261°
2026-04-24 00:18 33.94623 -118.29590 1401 ft 123 kts 262°
2026-04-24 00:18 33.94531 -118.30599 1306 ft 121 kts 263°
2026-04-24 00:18 33.94432 -118.31621 1189 ft 125 kts 261°
2026-04-24 00:18 33.94321 -118.32661 1006 ft 123 kts 262°
2026-04-24 00:19 33.94204 -118.33659 872 ft 118 kts 264°
2026-04-24 00:19 33.94101 -118.34628 702 ft 115 kts 264°
2026-04-24 00:19 33.94027 -118.35576 546 ft 112 kts 262°
2026-04-24 00:19 33.93914 -118.36517 434 ft 118 kts 265°
2026-04-24 00:20 33.93815 -118.37522 268 ft 122 kts 263°
2026-04-24 00:20 33.93716 -118.38498 104 ft 111 kts 261°
2026-04-24 00:20 33.93632 -118.39288 87 ft 72 kts 264°
2026-04-24 00:20 33.93588 -118.39725 88 ft 45 kts 263°
2026-04-24 00:21 33.93546 -118.40043 91 ft 25 kts 254°
2026-04-24 00:21 33.93468 -118.40235 88 ft 26 kts 229°
2026-04-24 00:21 33.93415 -118.40226 87 ft 9 kts 90°
2026-04-24 00:21 33.93424 -118.40127 88 ft 13 kts 82°
2026-04-24 00:22 33.93437 -118.40004 91 ft 17 kts 83°
2026-04-24 00:22 33.93451 -118.39862 90 ft 17 kts 83°
2026-04-24 00:22 33.93421 -118.39812 89 ft 10 kts 181°
2026-04-24 00:22 33.93370 -118.39829 90 ft 13 kts 221°
2026-04-24 00:23 33.93316 -118.39945 88 ft 10 kts 210°
2026-04-24 00:23 33.93273 -118.39948 87 ft 10 kts 156°
2026-04-24 00:23 33.93268 -118.39916 88 ft 0 kts 77°
2026-04-24 00:23 33.93268 -118.39913 88 ft 0 kts 81°